Location: *
(48.7358°N, 0.3111°E)
Time: 04:34:13
(UTC+00:00)

Cosmos 2333 Rocket - Pass Details

Date: 22 October 2019
Orbit: 838 x 864 km, 70.8° (Epoch: 16 November)

Event Time Altitude Azimuth Distance (km) Brightness Sun altitude
Exits shadow 05:33:37 10° 297° (WNW) 2,479 4.1 -9.8°
Maximum altitude 05:36:34 14° 329° (NNW) 2,199 4.0 -9.3°
Drops below altitude 10° 05:39:34 10° 1° (N) 2,495 4.6 -8.8°
Sets 05:43:22 0° 26° (NNE) 3,440 5.6 -8.2°
